Location: Follega
(52.8850°N, 5.7362°E)
Time: 23:49:02
(UTC+00:00)

Cosmos 2297 Rocket - Pass Details

Date: 03 October 2020
Orbit: 838 x 845 km, 71.0° (Epoch: 22 October)

Event Time Altitude Azimuth Distance (km) Brightness Sun altitude
Rises 20:34:00 0° 327° (NNW) 3,416 6.4 -30.1°
Reaches altitude 10° 20:36:53 10° 340° (NNW) 2,479 5.3 -30.4°
Enters shadow 20:41:06 26° 28° (NNE) 1,623 3.7 -30.9°
